Location: Seasalter
(51.3333°N, 1.0167°E)
Time: 19:29:50
(UTC+00:00)

Meteor 2-6 Rocket - Pass Details

Date: 26 September 2023
Orbit: 806 x 913 km, 81.3° (Epoch: 10 December)

Event Time Altitude Azimuth Distance (km) Brightness Sun altitude
Rises 04:46:10 0° 201° (SSW) 3,341 7.0 -10.4°
Reaches altitude 10° 04:48:36 10° 205° (SSW) 2,402 6.2 -10.0°
Maximum altitude 04:53:57 62° 286° (WNW) 910 4.1 -9.2°
Drops below altitude 10° 04:59:19 10° 7° (N) 2,401 6.8 -8.4°
Sets 05:01:45 0° 11° (N) 3,339 7.6 -8.0°
